Weather History for Ahoskie, NC

Change the Weather History Date:

Sunday, October 28, 2012

  Actual Average (KEMV) Record (KEMV)
Temperature  
Mean Temperature 55 °F -  
Max Temperature 59 °F 70 °F 85 °F (1984)
Min Temperature 51 °F 42 °F 28 °F (1988)
Degree Days  
Heating Degree Days 10    
Growing Degree Days 5 (Base 50)    
Moisture  
Dew Point 52 °F    
Average Humidity 92    
Maximum Humidity 94    
Minimum Humidity 88    
Precipitation  
Precipitation 1.55 in - - ()
Sea Level Pressure  
Sea Level Pressure 29.55 in    
Wind  
Wind Speed 14 mph (NNW)    
Max Wind Speed 22 mph    
Max Gust Speed 26 mph    
Visibility 8 miles    
Events Rain    
Averages and records for this station are not official NWS values.
T = Trace of Precipitation, MM = Missing Value Source: NWS Daily Summary

Daily Weather History Graph

Daily Weather History Graph

Search for Another Location

Airport:

Trip Planner

Search our weather history database for the weather conditions in past years. The results will help you decide how hot, cold, wet, or windy it might be!

Date:

Astronomy

Oct. 28, 2012 Rise Set
Actual Time 7:28 AM EDT 6:16 PM EDT
Civil Twilight 7:01 AM EDT 6:42 PM EDT
Nautical Twilight 6:31 AM EDT 7:12 PM EDT
Astronomical Twilight 6:01 AM EDT 7:42 PM EDT
Moon 5:32 PM EDT (10/28) 6:20 AM EDT (10/28)
Length of Visible Light 11h 40m
Length of Day
10h 47m
Waxing Gibbous, 99% of the Moon is Illuminated
Oct 28
Waxing Gibbous
Oct 29
Full
Nov 6
Last Quarter
Nov 13
New
Nov 20
First Quarter

Hourly Weather History & Observations

Time (EDT) Temp. Dew Point Humidity Pressure Visibility Wind Dir Wind Speed Gust Speed Precip Events Conditions
12:15 AM 59.0 °F 55.4 °F 88% 29.66 in 10.0 mi North 15.0 mph 23.0 mph 0.01 in Rain Light Rain
12:35 AM 59.0 °F 55.4 °F 88% 29.66 in 10.0 mi North 15.0 mph 25.3 mph 0.02 in Rain Light Rain
12:55 AM 59.0 °F 55.4 °F 88% 29.65 in 10.0 mi North 16.1 mph 25.3 mph 0.04 in Rain Light Rain
1:15 AM 59.0 °F 55.4 °F 88% 29.66 in 10.0 mi North 15.0 mph 19.6 mph 0.01 in Rain Light Rain
1:35 AM 59.0 °F 55.4 °F 88% 29.65 in 10.0 mi North 13.8 mph 20.7 mph 0.02 in Rain Light Rain
1:55 AM 57.2 °F 55.4 °F 94% 29.65 in 10.0 mi North 15.0 mph 23.0 mph 0.04 in Rain Rain
2:15 AM 57.2 °F 53.6 °F 88% 29.65 in 10.0 mi North 12.7 mph 18.4 mph 0.03 in Rain Light Rain
2:35 AM 57.2 °F 53.6 °F 88% 29.64 in 10.0 mi North 15.0 mph 26.5 mph 0.05 in Rain Rain
2:55 AM 57.2 °F 53.6 °F 88% 29.63 in 10.0 mi North 16.1 mph 23.0 mph 0.06 in Rain Light Rain
3:15 AM 57.2 °F 53.6 °F 88% 29.62 in 10.0 mi North 12.7 mph 19.6 mph 0.03 in Rain Rain
3:35 AM 57.2 °F 53.6 °F 88% 29.61 in 7.0 mi North 13.8 mph 19.6 mph 0.09 in Rain Heavy Rain
3:55 AM 57.2 °F 53.6 °F 88% 29.61 in 7.0 mi North 13.8 mph - 0.15 in Rain Heavy Rain
4:15 AM 57.2 °F 53.6 °F 88% 29.60 in 5.0 mi North 12.7 mph - 0.08 in Rain Heavy Rain
4:35 AM 55.4 °F 53.6 °F 94% 29.60 in 7.0 mi North 12.7 mph 24.2 mph 0.14 in Rain Heavy Rain
4:55 AM 55.4 °F 53.6 °F 94% 29.60 in 7.0 mi North 13.8 mph 20.7 mph 0.19 in Rain Rain
5:15 AM 55.4 °F 53.6 °F 94% 29.60 in 7.0 mi North 13.8 mph 23.0 mph 0.04 in Rain Heavy Rain
5:35 AM 55.4 °F 53.6 °F 94% 29.59 in 7.0 mi North 16.1 mph 24.2 mph 0.09 in Rain Rain
5:55 AM 55.4 °F 53.6 °F 94% 29.58 in 10.0 mi North 15.0 mph 21.9 mph 0.13 in Rain Rain
6:15 AM 55.4 °F 53.6 °F 94% 29.58 in 7.0 mi North 13.8 mph 17.3 mph 0.04 in Rain Rain
6:35 AM 55.4 °F 53.6 °F 94% 29.58 in 10.0 mi North 10.4 mph 18.4 mph 0.08 in Rain Rain
6:55 AM 55.4 °F 53.6 °F 94% 29.57 in 10.0 mi North 15.0 mph 21.9 mph 0.10 in Rain Rain
7:15 AM 55.4 °F 53.6 °F 94% 29.58 in 4.0 mi North 10.4 mph 18.4 mph 0.12 in Rain Heavy Rain
7:35 AM 55.4 °F 53.6 °F 94% 29.59 in 7.0 mi North 11.5 mph 19.6 mph 0.21 in Rain Heavy Rain
7:55 AM 55.4 °F 53.6 °F 94% 29.58 in 7.0 mi North 13.8 mph 18.4 mph 0.28 in Rain Heavy Rain
8:15 AM 55.4 °F 53.6 °F 94% 29.59 in 7.0 mi North 12.7 mph 18.4 mph 0.04 in Rain Rain
8:35 AM 55.4 °F 51.8 °F 88% 29.59 in 7.0 mi North 12.7 mph 20.7 mph 0.08 in Rain Rain
8:55 AM 55.4 °F 51.8 °F 88% 29.60 in 10.0 mi North 12.7 mph 18.4 mph 0.11 in Rain Rain
9:15 AM 55.4 °F 53.6 °F 94% 29.59 in 7.0 mi North 15.0 mph 21.9 mph 0.02 in Rain Rain
9:55 AM 53.6 °F 51.8 °F 94% 29.57 in 5.0 mi North 17.3 mph 24.2 mph 0.10 in Rain Rain
10:15 AM 53.6 °F 51.8 °F 94% 29.57 in 7.0 mi North 15.0 mph 26.5 mph 0.03 in Rain Rain
10:35 AM 53.6 °F 51.8 °F 94% 29.57 in 10.0 mi North 21.9 mph 26.5 mph 0.05 in Rain Rain
10:55 AM 53.6 °F 51.8 °F 94% 29.56 in 7.0 mi North 18.4 mph 25.3 mph 0.07 in Rain Rain
11:15 AM 53.6 °F 51.8 °F 94% 29.56 in 10.0 mi North 15.0 mph 21.9 mph 0.02 in Rain Light Rain
11:35 AM 51.8 °F 50.0 °F 94% 29.56 in 10.0 mi North 13.8 mph 21.9 mph 0.03 in Rain Light Rain
11:55 AM 51.8 °F 50.0 °F 94% 29.55 in 10.0 mi North 15.0 mph 21.9 mph 0.04 in Rain Rain
12:15 PM 51.8 °F 50.0 °F 94% 29.54 in 10.0 mi North 12.7 mph 20.7 mph 0.01 in Rain Light Rain
12:35 PM 51.8 °F 50.0 °F 94% 29.53 in 10.0 mi North 13.8 mph 18.4 mph 0.02 in Rain Light Rain
12:55 PM 51.8 °F 50.0 °F 94% 29.53 in 10.0 mi North 15.0 mph 21.9 mph 0.04 in Rain Rain
1:15 PM 51.8 °F 50.0 °F 94% 29.52 in 10.0 mi North 11.5 mph 18.4 mph 0.02 in Rain Rain
1:35 PM 53.6 °F 51.8 °F 94% 29.51 in 10.0 mi North 11.5 mph 18.4 mph 0.04 in Rain Rain
1:55 PM 53.6 °F 51.8 °F 94% 29.50 in 7.0 mi NNW 10.4 mph 18.4 mph 0.06 in Rain Rain
2:15 PM 53.6 °F 51.8 °F 94% 29.50 in 5.0 mi NNW 10.4 mph 18.4 mph 0.05 in Rain Rain
2:35 PM 53.6 °F 51.8 °F 94% 29.50 in 7.0 mi NNW 9.2 mph 19.6 mph 0.09 in Rain Rain
2:55 PM 51.8 °F 50.0 °F 94% 29.49 in 10.0 mi NNW 11.5 mph 18.4 mph 0.10 in Rain Rain
3:15 PM 51.8 °F 50.0 °F 94% 29.49 in 10.0 mi NNW 10.4 mph 21.9 mph 0.01 in Rain Light Rain
3:35 PM 51.8 °F 50.0 °F 94% 29.49 in 10.0 mi NNW 9.2 mph - 0.02 in Rain Light Rain
3:55 PM 51.8 °F 50.0 °F 94% 29.48 in 10.0 mi NNW 11.5 mph 16.1 mph 0.02 in Rain Light Rain
4:15 PM 51.8 °F 50.0 °F 94% 29.49 in 10.0 mi NNW 13.8 mph 20.7 mph N/A Rain Light Rain
4:35 PM 51.8 °F 50.0 °F 94% 29.49 in 10.0 mi NNW 10.4 mph 17.3 mph 0.01 in   Drizzle
4:55 PM 51.8 °F 50.0 °F 94% 29.49 in 10.0 mi NNW 12.7 mph 21.9 mph 0.01 in Rain Light Rain
5:15 PM 51.8 °F 50.0 °F 94% 29.49 in 7.0 mi NNW 9.2 mph 23.0 mph N/A   Light Drizzle
5:35 PM 51.8 °F 50.0 °F 94% 29.49 in 10.0 mi NNW 12.7 mph 20.7 mph N/A   Light Drizzle
5:55 PM 51.8 °F 50.0 °F 94% 29.50 in 7.0 mi NNW 13.8 mph 21.9 mph N/A Rain Light Rain
6:15 PM 51.8 °F 50.0 °F 94% 29.49 in 5.0 mi NNW 11.5 mph 24.2 mph N/A   Light Drizzle
6:35 PM 51.8 °F 50.0 °F 94% 29.49 in 10.0 mi NNW 12.7 mph 23.0 mph N/A   Overcast
6:55 PM 51.8 °F 50.0 °F 94% 29.49 in 10.0 mi NNW 15.0 mph 23.0 mph N/A   Overcast
7:15 PM 53.6 °F 50.0 °F 88% 29.51 in 10.0 mi NNW 11.5 mph 21.9 mph N/A   Overcast
7:35 PM 53.6 °F 51.8 °F 94% 29.51 in 10.0 mi NNW 12.7 mph 19.6 mph N/A   Overcast
7:55 PM 53.6 °F 50.0 °F 88% 29.50 in 10.0 mi NNW 12.7 mph 21.9 mph N/A   Overcast
8:15 PM 53.6 °F 50.0 °F 88% 29.50 in 10.0 mi NNW 12.7 mph 19.6 mph N/A   Overcast
8:35 PM 53.6 °F 50.0 °F 88% 29.50 in 10.0 mi NNW 11.5 mph 20.7 mph N/A   Overcast
8:55 PM 53.6 °F 50.0 °F 88% 29.50 in 10.0 mi NNW 10.4 mph 24.2 mph N/A   Overcast
9:15 PM 53.6 °F 50.0 °F 88% 29.49 in 10.0 mi NNW 11.5 mph 23.0 mph N/A   Overcast
9:35 PM 51.8 °F 50.0 °F 94% 29.49 in 7.0 mi NNW 11.5 mph 19.6 mph N/A   Overcast
9:55 PM 51.8 °F 48.2 °F 88% 29.50 in 7.0 mi NNW 10.4 mph 17.3 mph N/A   Overcast
10:15 PM 51.8 °F 48.2 °F 88% 29.50 in 5.0 mi NNW 12.7 mph 18.4 mph N/A   Drizzle
10:35 PM 51.8 °F 50.0 °F 94% 29.49 in 5.0 mi NNW 11.5 mph 20.7 mph N/A   Drizzle
10:55 PM 51.8 °F 50.0 °F 94% 29.49 in 4.0 mi NNW 9.2 mph 17.3 mph 0.01 in   Drizzle
11:15 PM 51.8 °F 50.0 °F 94% 29.47 in 4.0 mi NNW 11.5 mph 21.9 mph N/A   Drizzle
11:35 PM 51.8 °F 50.0 °F 94% 29.47 in 5.0 mi NNW 6.9 mph 19.6 mph N/A   Drizzle
11:55 PM 51.8 °F 50.0 °F 94% 29.47 in 5.0 mi NW 10.4 mph 16.1 mph N/A   Drizzle